STARLINK-33997, 63928

Orbit data source: Space-Track

STARLINK-33997, 63928 is a payload satellite owned by SpaceX/Seattle (US) in LEO that was launched on Tue, 13 May 2025 UTC via an FALCON 9 launch vehicle from the Air Force Western Test Range (AFWTR). Payload-class satellites include a variety of spacecraft equipped with specific instruments for various scientific and technological missions. These include communications satellites like Starlink; space stations such as the ISS; scientific satellites like the Hubble; Earth observation satellites from companies like Planet Labs, Umbra, and HawkEye 360; GPS; miniature CubeSats for education and research; and military/defense satellites.

Loading next visibility...
Identifier
63928, 2025-098C
Orbit
LEO
Country
Flag of USUS
Related business
Manufacturer
SpaceX/Seattle
Mission
Operational Commercial Communications
Bus & Motor
STARLINK V2MO, Unknown motor
Mass
575 kg wet, ~530 kg dry
Launch date (UTC)
2025-05-13 (7 months ago)
Launch vehicle
FALCON 9
Launch site
Air Force Western Test Range (AFWTR)
Object type
Payload
Rocket body
Debris
Shape & HBR
Box + 2 Pan, 17.7 m
Radar Cross Section
36.964 m², Large (>1 m²)

Expand to show TLE details & history
Last TLE update: 19 hours ago

TLE from 19 hours ago
0 STARLINK-33997
1 63928U 25098C   25348.81175133  .00003459  00000-0  29762-3 0  9993
2 63928  70.0007 128.6557 0003252 273.0164  87.0623 14.98324489 33850
Epoch: 2025-12-14T19:28Z
TLE epoch observation values (Epoch: 2025-12-14T19:28:55.314Z)
Latitude
-0.00004°
Longitude
112.7059°
Altitude
574.382 km
Speed
7.574 km/s
True Right ascension
08h 34m 37s
True Declination
0° 00' 00"
Sunlit
Object was in full shadow at epoch
Visualization orbit readout
Latitude
Unknown
Longitude
Unknown
Altitude
Unknown
Speed
Unknown
Apparent Right ascension
Unknown
Apparent Declination
Unknown
Sunlit
N/A
Visualization observer readout
Local Sidereal Time
13:25:37
Azimuth
Unknown
Elevation
Unknown
Doppler factor
Unknown
Orbital elements
Apogee altitude
572.281 km
Perigee altitude
567.762 km
Semi-major axis
6,948.158 km
Eccentricity
0.00033
Inclination
70.0007°
RAAN
128.6557°
Arg. of periapsis
273.0164°
True anomaly
87.09952°
Mean anomaly
87.0623°
Eccentric anomaly
87.08091°
Mean motion
3.74747 °/min
Orbital period
96.06 mins
BSTAR
0.00029762
Loading maneuver chart data...
Computing Atmospheric mass density...
Loading historical data...
Loading historical data...
Loading historical data...
Loading historical data...
Loading historical data...
Loading historical data...
Loading historical data...

Documentation

Showing up to 5 results
|